Location: Crescent
(42.8242°N, 73.7329°W)
Time: 17:32:20
(UTC+00:00)

Vanguard 1 - Pass Details

Date: 21 February 2026
Orbit: 653 x 3818 km, 34.2° (Epoch: 5 March)

Event Time Altitude Azimuth Distance (km) Brightness Sun altitude
Rises 18:19:50 0° 215° (SW) 3,851 14.1 34.4°
Reaches altitude 10° 18:22:22 10° 205° (SSW) 3,184 14.1 34.2°
Maximum altitude 18:29:29 33° 144° (SE) 2,646 13.0 33.7°
Drops below altitude 10° 18:41:15 10° 88° (E) 5,336 13.6 32.8°
Sets 18:47:01 0° 81° (E) 6,877 14.1 32.3°
